FENGYUN 1C DEB

Satellite information

Favourite Embed

Satellite Type and Status

DEBRISIN ORBIT

Key statistics

Satellite FENGYUN 1C DEB at a glance.

Uptime

9661

Days in orbit

Revolutions

≈ 13.9

Per day

Orbit

SSO

Sun Synchronous Orbit

Inclination

99.0

Latest

Satellite identification and parameters

Extended collection of information and parameters for FENGYUN 1C DEB.

Object identification

Identified? True

Debris? True

Object name: FENGYUN 1C DEB

International designator: 1999-025BJH

Object number (NORAD): 31179

Object ID (CCSDS): 31179

Country: PEOPLES REPUBLIC OF CHINA (PRC)

Current information (Y/N): Y

RCS size: SMALL

Orbital parameters

Period: 103.47 minutes

Inclination: 99.0259 deg

SMA: 7300.806 km

Apoapsis: 1081.163 km

Periapsis: 764.179 km

RAAN: 314.1366 deg

Eccentricy: 0.02170883

Argument of periapsis: 147.5673 deg

Mean anomaly: 213.9044 deg

Mean motion: 13.91702955 rev/day

Mean motion (dot): 0.00002105 rev/day2

B* drag term: 0.0013946712 1/REarth

Two-line elements (TLE)

Creation date: Oct. 20, 2025, 2:10 a.m.

Reference frame: TEME

Reference center: EARTH

Epoch: Oct. 19, 2025, 6:43 p.m. UTC

TLE line 0: 0 FENGYUN 1C DEB

TLE line 1: 1 31179U 99025BJH 25292.78054937 .00002105 00000-0 13947-2 0 9993

TLE line 2: 2 31179 99.0259 314.1366 0217088 147.5673 213.9044 13.91702955611902

Live tracking on map

Real-time ground track for satellite FENGYUN 1C DEB.

In-orbit conjunctions

A list of the most updated potential collisions computed for object FENGYUN 1C DEB.

Target Orbit TCA Probability of collision Miss distance Type
METEOR 2-11 LEO 2025-05-22 13:23:48 0.000197044 448.0 (m) PAYLOAD
CZ-6A DEB LEO 2025-01-09 23:32:46 0.0001127103 447.0 (m) DEBRIS

Associated space launch

Chinese polar orbiting meteorological satellite

FENGYUN 1C DEB was lifted into orbit during the mission ‘Long March 4B | Feng Yun 1C’, on board a Long March 4B space rocket.

The launch took place on May 10, 1999, 1:33 a.m. from Launch Complex 7.

For more information about the launch, click the button.

Launch to space Long March 4B | Feng Yun 1C
Long March 4B | Feng Yun 1C

Agency: N/A

Status: Launch Successful

Launch date: May 10, 1999, 1:33 a.m. UTC

Rocket: Long March 4B

Launch pad: Launch Complex 7

Location: Taiyuan Satellite Launch Center, People's Republic of China

...

Latest news about this satellite

There are no fresh news available about this satellite. Check back as we update our databases every day.


Newsletter sign-up

Weekly statistics, charts and insights to help you stay on top of the space industry.